Time,TemperatureF,DewpointF,PressureIn,WindDirection,WindDirectionDegrees,WindSpeedMPH,WindSpeedGustMPH,Humidity,HourlyPrecipIn,Conditions,Clouds,dailyrainin,SoftwareType,DateUTC
2013-02-08 00:01:00,23.0,16.0,-100.00,WSW,250,9.0,13.0,72,0.00,,,-99.99,,2013-02-08 07:01:00,
2013-02-08 00:11:00,23.0,15.0,-100.00,SSW,205,9.0,13.0,71,0.00,,,-99.99,,2013-02-08 07:11:00,
2013-02-08 00:21:00,23.0,15.0,-100.00,SW,230,6.0,12.0,68,0.00,,,-99.99,,2013-02-08 07:21:00,
2013-02-08 00:32:00,23.0,14.0,-100.00,SW,220,7.0,14.0,68,0.00,,,-99.99,,2013-02-08 07:32:00,
2013-02-08 00:42:00,23.0,14.0,-100.00,SW,215,7.0,16.0,67,0.00,,,-99.99,,2013-02-08 07:42:00,
2013-02-08 00:52:00,22.0,13.0,-100.00,SW,220,9.0,15.0,67,0.00,,,-99.99,,2013-02-08 07:52:00,
2013-02-08 01:01:00,22.0,13.0,-100.00,SW,215,12.0,18.0,65,0.00,,,-99.99,,2013-02-08 08:01:00,
2013-02-08 01:11:00,22.0,12.0,-100.00,SW,215,9.0,17.0,65,0.00,,,-99.99,,2013-02-08 08:11:00,
2013-02-08 01:21:00,22.0,12.0,-100.00,SW,225,9.0,16.0,65,0.00,,,-99.99,,2013-02-08 08:21:00,
2013-02-08 01:32:00,22.0,12.0,-100.00,SW,220,9.0,14.0,65,0.00,,,-99.99,,2013-02-08 08:32:00,
2013-02-08 01:42:00,22.0,12.0,-100.00,SW,225,9.0,13.0,65,0.00,,,-99.99,,2013-02-08 08:42:00,
2013-02-08 01:52:00,21.0,12.0,-100.00,SW,235,7.0,14.0,65,0.00,,,-99.99,,2013-02-08 08:52:00,
2013-02-08 02:03:00,22.0,12.0,-100.00,WSW,250,9.0,15.0,65,0.00,,,-99.99,,2013-02-08 09:03:00,
2013-02-08 02:11:00,21.0,11.0,-100.00,SW,220,7.0,11.0,65,0.00,,,-99.99,,2013-02-08 09:11:00,
2013-02-08 02:21:00,21.0,11.0,-100.00,SW,235,7.0,16.0,65,0.00,,,-99.99,,2013-02-08 09:21:00,
2013-02-08 02:32:00,21.0,11.0,-100.00,WSW,250,7.0,11.0,65,0.00,,,-99.99,,2013-02-08 09:32:00,
2013-02-08 02:42:00,21.0,11.0,-100.00,SW,225,8.0,11.0,65,0.00,,,-99.99,,2013-02-08 09:42:00,
2013-02-08 02:52:00,21.0,11.0,-100.00,SW,230,7.0,13.0,64,0.00,,,-99.99,,2013-02-08 09:52:00,
2013-02-08 03:01:00,21.0,11.0,-100.00,SW,230,6.0,13.0,64,0.00,,,-99.99,,2013-02-08 10:01:00,
2013-02-08 03:11:00,21.0,11.0,-100.00,SW,220,10.0,16.0,64,0.00,,,-99.99,,2013-02-08 10:11:00,
2013-02-08 03:22:00,21.0,11.0,-100.00,SSW,210,9.0,19.0,63,0.00,,,-99.99,,2013-02-08 10:22:00,
2013-02-08 03:31:00,21.0,11.0,-100.00,SW,235,10.0,19.0,62,0.00,,,-99.99,,2013-02-08 10:31:00,
2013-02-08 03:42:00,21.0,10.0,-100.00,SW,220,6.0,21.0,62,0.00,,,-99.99,,2013-02-08 10:42:00,
2013-02-08 03:52:00,22.0,11.0,-100.00,SW,220,9.0,17.0,62,0.00,,,-99.99,,2013-02-08 10:52:00,
2013-02-08 04:01:00,22.0,11.0,-100.00,SW,220,11.0,17.0,62,0.00,,,-99.99,,2013-02-08 11:01:00,
2013-02-08 04:11:00,22.0,11.0,-100.00,SW,230,7.0,18.0,63,0.00,,,-99.99,,2013-02-08 11:11:00,
2013-02-08 04:21:00,22.0,11.0,-100.00,WSW,240,10.0,19.0,63,0.00,,,-99.99,,2013-02-08 11:21:00,
2013-02-08 04:32:00,22.0,12.0,-100.00,SW,225,11.0,19.0,64,0.00,,,-99.99,,2013-02-08 11:32:00,
2013-02-08 04:42:00,22.0,12.0,-100.00,SW,230,11.0,23.0,64,0.00,,,-99.99,,2013-02-08 11:42:00,
2013-02-08 04:52:00,21.0,14.0,-100.00,SSW,210,10.0,21.0,73,0.10,,,-99.99,,2013-02-08 11:52:00,
2013-02-08 05:02:00,22.0,15.0,-100.00,SW,215,9.0,17.0,74,0.00,,,-99.99,,2013-02-08 12:02:00,
2013-02-08 05:11:00,22.0,15.0,-100.00,SSW,210,8.0,19.0,73,0.00,,,-99.99,,2013-02-08 12:11:00,
2013-02-08 05:22:00,22.0,15.0,-100.00,SW,220,9.0,19.0,74,0.50,,,-99.99,,2013-02-08 12:22:00,
2013-02-08 05:33:00,21.0,16.0,-100.00,SW,225,15.0,24.0,79,0.50,,,-99.99,,2013-02-08 12:33:00,
2013-02-08 05:42:00,21.0,16.0,-100.00,SSW,195,10.0,23.0,80,0.00,,,-99.99,,2013-02-08 12:42:00,
2013-02-08 05:52:00,21.0,16.0,-100.00,SSW,195,12.0,29.0,80,0.40,,,-99.99,,2013-02-08 12:52:00,
2013-02-08 06:01:00,21.0,17.0,-100.00,SSW,210,14.0,24.0,81,1.00,,,-99.99,,2013-02-08 13:01:00,
2013-02-08 06:11:00,22.0,18.0,-100.00,WSW,250,12.0,25.0,84,0.00,,,-99.99,,2013-02-08 13:11:00,
2013-02-08 06:22:00,22.0,18.0,-100.00,SW,225,12.0,23.0,82,0.00,,,-99.99,,2013-02-08 13:22:00,
2013-02-08 06:32:00,22.0,17.0,-100.00,WSW,245,11.0,21.0,81,0.00,,,-99.99,,2013-02-08 13:32:00,
2013-02-08 06:42:00,22.0,17.0,-100.00,SSW,195,12.0,24.0,80,0.00,,,-99.99,,2013-02-08 13:42:00,
2013-02-08 06:51:00,22.0,17.0,-100.00,SSW,205,9.0,22.0,79,0.00,,,-99.99,,2013-02-08 13:51:00,
2013-02-08 07:02:00,22.0,17.0,-100.00,South,185,8.0,14.0,79,0.00,,,-99.99,,2013-02-08 14:02:00,
2013-02-08 07:11:00,22.0,17.0,-100.00,SW,220,9.0,15.0,79,0.00,,,-99.99,,2013-02-08 14:11:00,
2013-02-08 07:22:00,22.0,17.0,-100.00,SW,220,6.0,21.0,78,0.00,,,-99.99,,2013-02-08 14:22:00,
2013-02-08 07:32:00,22.0,17.0,-100.00,South,180,8.0,16.0,77,0.00,,,-99.99,,2013-02-08 14:32:00,
2013-02-08 07:42:00,22.0,17.0,-100.00,SSW,210,7.0,13.0,77,0.00,,,-99.99,,2013-02-08 14:42:00,
2013-02-08 07:52:00,23.0,17.0,-100.00,SW,215,11.0,16.0,75,0.00,,,-99.99,,2013-02-08 14:52:00,
2013-02-08 08:02:00,23.0,16.0,-100.00,WSW,240,7.0,22.0,75,0.00,,,-99.99,,2013-02-08 15:02:00,
2013-02-08 08:11:00,23.0,17.0,-100.00,SSW,210,6.0,15.0,74,0.00,,,-99.99,,2013-02-08 15:11:00,
2013-02-08 08:22:00,23.0,16.0,-100.00,SW,225,11.0,17.0,74,0.00,,,-99.99,,2013-02-08 15:22:00,
2013-02-08 08:32:00,24.0,16.0,-100.00,WSW,245,7.0,16.0,73,0.00,,,-99.99,,2013-02-08 15:32:00,
2013-02-08 08:42:00,24.0,16.0,-100.00,North,0,2.0,17.0,72,0.00,,,-99.99,,2013-02-08 15:42:00,
2013-02-08 08:52:00,24.0,16.0,-100.00,WSW,245,7.0,17.0,71,0.00,,,-99.99,,2013-02-08 15:52:00,
2013-02-08 09:01:00,24.0,16.0,-100.00,SW,220,11.0,18.0,71,0.00,,,-99.99,,2013-02-08 16:01:00,
2013-02-08 09:11:00,24.0,16.0,-100.00,WSW,240,6.0,16.0,71,0.00,,,-99.99,,2013-02-08 16:11:00,
2013-02-08 09:22:00,24.0,16.0,-100.00,WSW,245,7.0,22.0,71,0.00,,,-99.99,,2013-02-08 16:22:00,
2013-02-08 09:32:00,24.0,16.0,-100.00,SW,230,11.0,18.0,70,0.00,,,-99.99,,2013-02-08 16:32:00,
2013-02-08 09:42:00,24.0,16.0,-100.00,SW,220,6.0,12.0,70,0.00,,,-99.99,,2013-02-08 16:42:00,
2013-02-08 09:52:00,24.0,15.0,-100.00,SW,220,7.0,11.0,70,0.00,,,-99.99,,2013-02-08 16:52:00,
2013-02-08 10:03:00,24.0,15.0,-100.00,WSW,240,7.0,17.0,69,0.00,,,-99.99,,2013-02-08 17:03:00,
2013-02-08 10:12:00,24.0,15.0,-100.00,WNW,290,5.0,19.0,69,0.00,,,-99.99,,2013-02-08 17:12:00,
2013-02-08 10:23:00,24.0,15.0,-100.00,SW,225,13.0,19.0,69,0.00,,,-99.99,,2013-02-08 17:23:00,
2013-02-08 10:32:00,24.0,16.0,-100.00,ESE,110,3.0,19.0,69,0.00,,,-99.99,,2013-02-08 17:32:00,
2013-02-08 10:42:00,24.0,16.0,-100.00,SSW,210,7.0,16.0,69,0.00,,,-99.99,,2013-02-08 17:42:00,
2013-02-08 10:53:00,24.0,16.0,-100.00,SSW,210,2.0,17.0,69,0.00,,,-99.99,,2013-02-08 17:53:00,
2013-02-08 11:02:00,24.0,16.0,-100.00,SW,220,9.0,17.0,70,0.00,,,-99.99,,2013-02-08 18:02:00,
2013-02-08 11:12:00,24.0,16.0,-100.00,SSW,210,7.0,20.0,71,0.30,,,-99.99,,2013-02-08 18:12:00,
2013-02-08 11:24:00,24.0,17.0,-100.00,WSW,255,3.0,11.0,72,0.20,,,-99.99,,2013-02-08 18:24:00,
2013-02-08 11:35:00,24.0,17.0,-100.00,SSE,150,3.0,15.0,73,0.10,,,-99.99,,2013-02-08 18:35:00,
2013-02-08 11:43:00,24.0,17.0,-100.00,SW,225,11.0,15.0,73,0.60,,,-99.99,,2013-02-08 18:43:00,
2013-02-08 11:52:00,25.0,17.0,-100.00,SSW,205,6.0,12.0,71,0.00,,,-99.99,,2013-02-08 18:52:00,
2013-02-08 12:02:00,25.0,16.0,-100.00,SW,230,11.0,23.0,69,0.00,,,-99.99,,2013-02-08 19:02:00,
2013-02-08 12:11:00,26.0,16.0,-100.00,WSW,240,7.0,22.0,66,0.00,,,-99.99,,2013-02-08 19:11:00,
2013-02-08 12:22:00,26.0,16.0,-100.00,SW,220,11.0,23.0,63,0.00,,,-99.99,,2013-02-08 19:22:00,
2013-02-08 12:32:00,27.0,16.0,-100.00,SW,220,5.0,23.0,62,0.00,,,-99.99,,2013-02-08 19:32:00,
2013-02-08 12:42:00,28.0,16.0,-100.00,WSW,240,7.0,18.0,59,0.00,,,-99.99,,2013-02-08 19:42:00,
2013-02-08 12:52:00,28.0,15.0,-100.00,SSW,205,12.0,21.0,59,0.00,,,-99.99,,2013-02-08 19:52:00,
2013-02-08 13:02:00,28.0,15.0,-100.00,SW,225,7.0,21.0,59,0.00,,,-99.99,,2013-02-08 20:02:00,
2013-02-08 13:11:00,28.0,15.0,-100.00,SW,220,15.0,25.0,58,0.00,,,-99.99,,2013-02-08 20:11:00,
2013-02-08 13:22:00,31.0,17.0,-100.00,WSW,255,7.0,19.0,55,0.00,,,-99.99,,2013-02-08 20:22:00,
2013-02-08 13:32:00,28.0,14.0,-100.00,SSW,200,7.0,23.0,55,0.00,,,-99.99,,2013-02-08 20:32:00,
2013-02-08 13:42:00,27.0,14.0,-100.00,SW,235,12.0,21.0,56,0.00,,,-99.99,,2013-02-08 20:42:00,
2013-02-08 13:52:00,28.0,15.0,-100.00,WSW,240,11.0,27.0,57,0.00,,,-99.99,,2013-02-08 20:52:00,
2013-02-08 14:02:00,28.0,14.0,-100.00,WSW,245,9.0,27.0,56,0.00,,,-99.99,,2013-02-08 21:02:00,
2013-02-08 14:11:00,28.0,14.0,-100.00,WNW,285,6.0,17.0,55,0.00,,,-99.99,,2013-02-08 21:11:00,
2013-02-08 14:22:00,29.0,15.0,-100.00,SW,220,7.0,21.0,56,0.00,,,-99.99,,2013-02-08 21:22:00,
2013-02-08 14:32:00,28.0,14.0,-100.00,WSW,255,8.0,22.0,54,0.00,,,-99.99,,2013-02-08 21:32:00,
2013-02-08 14:42:00,27.0,14.0,-100.00,SW,220,12.0,24.0,56,0.00,,,-99.99,,2013-02-08 21:42:00,
2013-02-08 14:52:00,28.0,14.0,-100.00,WSW,245,13.0,29.0,56,0.00,,,-99.99,,2013-02-08 21:52:00,
2013-02-08 15:02:00,27.0,14.0,-100.00,SW,225,12.0,29.0,57,0.00,,,-99.99,,2013-02-08 22:02:00,
2013-02-08 15:11:00,27.0,14.0,-100.00,West,265,11.0,23.0,57,0.00,,,-99.99,,2013-02-08 22:11:00,
2013-02-08 15:22:00,27.0,14.0,-100.00,West,260,6.0,29.0,57,0.00,,,-99.99,,2013-02-08 22:22:00,
2013-02-08 15:32:00,27.0,14.0,-100.00,WSW,255,7.0,30.0,57,0.00,,,-99.99,,2013-02-08 22:32:00,
2013-02-08 15:42:00,27.0,14.0,-100.00,WSW,255,7.0,23.0,56,0.00,,,-99.99,,2013-02-08 22:42:00,
2013-02-08 15:52:00,27.0,14.0,-100.00,SW,225,7.0,26.0,56,0.00,,,-99.99,,2013-02-08 22:52:00,
2013-02-08 16:01:00,27.0,14.0,-100.00,SSW,200,12.0,21.0,56,0.00,,,-99.99,,2013-02-08 23:01:00,
2013-02-08 16:11:00,27.0,13.0,-100.00,South,170,6.0,29.0,55,0.00,,,-99.99,,2013-02-08 23:11:00,
2013-02-08 16:21:00,27.0,13.0,-100.00,SW,220,13.0,24.0,55,0.00,,,-99.99,,2013-02-08 23:21:00,
2013-02-08 16:32:00,27.0,13.0,-100.00,South,175,9.0,26.0,55,0.00,,,-99.99,,2013-02-08 23:32:00,
2013-02-08 16:42:00,27.0,13.0,-100.00,WSW,245,9.0,32.0,55,0.00,,,-99.99,,2013-02-08 23:42:00,
2013-02-08 16:52:00,27.0,13.0,-100.00,WSW,255,4.0,20.0,55,0.00,,,-99.99,,2013-02-08 23:52:00,
2013-02-08 17:02:00,27.0,13.0,-100.00,SW,230,12.0,19.0,55,0.00,,,-99.99,,2013-02-09 00:02:00,
2013-02-08 17:11:00,27.0,13.0,-100.00,WSW,245,9.0,23.0,55,0.00,,,-99.99,,2013-02-09 00:11:00,
2013-02-08 17:22:00,28.0,13.0,-100.00,West,260,9.0,25.0,55,0.00,,,-99.99,,2013-02-09 00:22:00,
2013-02-08 17:32:00,27.0,13.0,-100.00,South,170,4.0,12.0,55,0.00,,,-99.99,,2013-02-09 00:32:00,
2013-02-08 17:42:00,27.0,14.0,-100.00,South,180,6.0,19.0,56,0.00,,,-99.99,,2013-02-09 00:42:00,
2013-02-08 17:52:00,27.0,14.0,-100.00,South,170,6.0,17.0,56,0.00,,,-99.99,,2013-02-09 00:52:00,
2013-02-08 18:01:00,27.0,14.0,-100.00,SW,225,4.0,15.0,57,0.00,,,-99.99,,2013-02-09 01:01:00,
2013-02-08 18:11:00,27.0,14.0,-100.00,West,260,9.0,16.0,57,0.00,,,-99.99,,2013-02-09 01:11:00,
2013-02-08 18:22:00,27.0,14.0,-100.00,SSW,210,9.0,25.0,58,0.00,,,-99.99,,2013-02-09 01:22:00,
2013-02-08 18:32:00,27.0,14.0,-100.00,West,275,5.0,14.0,58,0.00,,,-99.99,,2013-02-09 01:32:00,
2013-02-08 18:42:00,27.0,15.0,-100.00,SW,220,8.0,25.0,59,0.00,,,-99.99,,2013-02-09 01:42:00,
2013-02-08 18:52:00,26.0,15.0,-100.00,SE,140,4.0,27.0,60,0.00,,,-99.99,,2013-02-09 01:52:00,
2013-02-08 19:01:00,26.0,15.0,-100.00,SW,230,7.0,13.0,61,0.00,,,-99.99,,2013-02-09 02:01:00,
2013-02-08 19:11:00,26.0,15.0,-100.00,WSW,250,7.0,15.0,62,0.00,,,-99.99,,2013-02-09 02:11:00,
2013-02-08 19:21:00,26.0,15.0,-100.00,SSW,205,5.0,14.0,62,0.00,,,-99.99,,2013-02-09 02:21:00,
2013-02-08 19:32:00,26.0,15.0,-100.00,WSW,255,12.0,19.0,62,0.00,,,-99.99,,2013-02-09 02:32:00,
2013-02-08 19:42:00,26.0,15.0,-100.00,WSW,245,11.0,23.0,62,0.00,,,-99.99,,2013-02-09 02:42:00,
2013-02-08 19:52:00,26.0,15.0,-100.00,SW,215,7.0,12.0,62,0.00,,,-99.99,,2013-02-09 02:52:00,
2013-02-08 20:02:00,26.0,15.0,-100.00,South,190,9.0,20.0,62,0.00,,,-99.99,,2013-02-09 03:02:00,
2013-02-08 20:11:00,26.0,15.0,-100.00,South,170,6.0,16.0,62,0.00,,,-99.99,,2013-02-09 03:11:00,
2013-02-08 20:22:00,26.0,15.0,-100.00,SW,215,13.0,31.0,62,0.00,,,-99.99,,2013-02-09 03:22:00,
2013-02-08 20:32:00,26.0,15.0,-100.00,SW,225,12.0,20.0,62,0.00,,,-99.99,,2013-02-09 03:32:00,
2013-02-08 20:42:00,26.0,15.0,-100.00,SW,235,15.0,30.0,62,0.00,,,-99.99,,2013-02-09 03:42:00,
2013-02-08 20:52:00,26.0,15.0,-100.00,WSW,250,12.0,25.0,61,0.00,,,-99.99,,2013-02-09 03:52:00,
2013-02-08 21:02:00,26.0,15.0,-100.00,SW,235,13.0,24.0,62,0.00,,,-99.99,,2013-02-09 04:02:00,
2013-02-08 21:12:00,26.0,15.0,-100.00,WSW,250,14.0,25.0,62,0.00,,,-99.99,,2013-02-09 04:12:00,
2013-02-08 21:23:00,26.0,15.0,-100.00,SW,230,9.0,15.0,62,0.00,,,-99.99,,2013-02-09 04:23:00,
2013-02-08 21:32:00,26.0,15.0,-100.00,SE,135,7.0,24.0,62,0.00,,,-99.99,,2013-02-09 04:32:00,
2013-02-08 21:42:00,26.0,15.0,-100.00,SW,235,7.0,23.0,62,0.00,,,-99.99,,2013-02-09 04:42:00,
2013-02-08 21:52:00,25.0,15.0,-100.00,West,260,19.0,30.0,62,0.00,,,-99.99,,2013-02-09 04:52:00,
2013-02-08 22:02:00,25.0,14.0,-100.00,South,175,9.0,27.0,61,0.00,,,-99.99,,2013-02-09 05:02:00,
2013-02-08 22:12:00,25.0,14.0,-100.00,WSW,240,9.0,35.0,60,0.00,,,-99.99,,2013-02-09 05:12:00,
2013-02-08 22:22:00,25.0,13.0,-100.00,SW,220,8.0,25.0,61,0.00,,,-99.99,,2013-02-09 05:22:00,
2013-02-08 22:32:00,25.0,13.0,-100.00,SW,235,14.0,25.0,61,0.00,,,-99.99,,2013-02-09 05:32:00,
2013-02-08 22:42:00,25.0,13.0,-100.00,SE,145,6.0,21.0,60,0.00,,,-99.99,,2013-02-09 05:42:00,
2013-02-08 22:52:00,24.0,12.0,-100.00,SSW,205,8.0,17.0,59,0.00,,,-99.99,,2013-02-09 05:52:00,
2013-02-08 23:01:00,24.0,12.0,-100.00,SSW,200,6.0,20.0,59,0.00,,,-99.99,,2013-02-09 06:01:00,
2013-02-08 23:11:00,24.0,12.0,-100.00,SW,225,4.0,18.0,59,0.00,,,-99.99,,2013-02-09 06:11:00,
2013-02-08 23:21:00,24.0,12.0,-100.00,SW,225,8.0,17.0,58,0.00,,,-99.99,,2013-02-09 06:21:00,
2013-02-08 23:32:00,24.0,12.0,-100.00,West,275,11.0,21.0,57,0.00,,,-99.99,,2013-02-09 06:32:00,
2013-02-08 23:42:00,24.0,11.0,-100.00,SSE,160,4.0,18.0,57,0.00,,,-99.99,,2013-02-09 06:42:00,
2013-02-08 23:51:00,24.0,12.0,-100.00,SW,220,11.0,29.0,57,0.00,,,-99.99,,2013-02-09 06:51:00,